DW5256 Weather Reports


Display with metric or nautical units.
time (UTC)temp
F
wind
direction
speed
MPH
gust
MPH
rain 1hr
in
rain 24hr
in
rain mn
in
humidity
%
barometer
mb
20260508070518 60 217 0.0 0.0 0.00 0.00 0.00 84 1014.8
20260508065023 60 218 0.0 0.0 0.00 0.00 0.00 84 1015.0
20260508063520 60 219 0.0 0.0 0.00 0.00 0.00 84 1015.0
20260508062017 60 219 0.0 0.0 0.00 0.00 0.00 83 1015.0
20260508060517 60 218 0.0 0.0 0.00 0.00 0.00 84 1015.0
20260508055015 60 219 0.0 0.0 0.00 0.00 0.00 84 1014.9
20260508053531 60 219 0.0 0.0 0.00 0.00 0.00 84 1014.9
20260508052018 60 219 0.0 0.0 0.00 0.00 0.00 83 1014.9
20260508050515 60 219 0.0 0.0 0.00 0.00 0.00 84 1014.9
20260508045032 60 219 0.0 0.0 0.00 0.00 0.00 84 1014.9
20260508043517 60 219 0.0 0.0 0.00 0.00 0.00 84 1014.7
20260508042031 60 219 0.0 0.0 0.00 0.00 0.00 83 1014.4
20260508040527 60 219 0.0 0.0 0.00 0.00 0.00 83 1014.3
20260508035019 60 219 0.0 0.0 0.00 0.00 0.00 82 1014.1
20260508033537 61 219 0.0 0.0 0.00 0.00 0.00 81 1014.0
20260508032028 61 219 0.0 0.0 0.00 0.00 0.00 80 1013.8
20260508030526 62 219 0.0 0.0 0.00 0.00 0.00 79 1013.5
20260508025022 63 221 0.0 0.0 0.00 0.00 0.00 78 1013.3
20260508023526 64 225 0.0 6.0 0.00 0.00 0.00 76 1013.1
20260508022026 66 222 0.0 0.0 0.00 0.00 0.00 74 1013.0
20260508020543 67 223 0.0 5.0 0.00 0.00 0.00 72 1012.8
20260508015019 68 229 1.0 4.0 0.00 0.00 0.00 71 1012.8
20260508013518 69 246 0.0 8.0 0.00 0.00 0.00 70 1012.7
20260508012054 69 205 0.0 5.0 0.00 0.00 0.00 70 1012.8
20260508010531 69 253 1.0 7.0 0.00 0.00 0.00 69 1012.8
20260508005028 71 246 1.0 8.0 0.00 0.00 0.00 67 1012.7
20260508003527 72 244 0.0 7.0 0.00 0.00 0.00 66 1012.7
20260508002016 72 236 5.0 10.0 0.00 0.00 0.00 64 1012.6
20260508000516 73 218 1.0 11.0 0.00 0.00 0.00 65 1012.6
20260507235052 73 265 1.0 8.0 0.00 0.00 0.00 64 1012.6
20260507233531 72 289 2.0 8.0 0.00 0.00 0.00 66 1012.6
20260507232026 72 215 2.0 10.0 0.00 0.00 0.00 66 1012.5
20260507230550 71 266 4.0 10.0 0.00 0.00 0.00 66 1012.5
20260507225025 72 263 6.0 12.0 0.00 0.00 0.00 66 1012.7
20260507223525 72 299 3.0 10.0 0.00 0.00 0.00 65 1012.6
20260507222019 72 269 2.0 13.0 0.00 0.00 0.00 65 1012.8
20260507220515 72 309 2.0 11.0 0.00 0.00 0.00 65 1012.9
20260507215050 71 267 3.0 10.0 0.00 0.00 0.00 66 1013.2
20260507213545 71 286 2.0 11.0 0.00 0.00 0.00 66 1013.2
20260507212021 71 272 1.0 12.0 0.00 0.00 0.00 66 1013.3
20260507210538 71 274 1.0 12.0 0.00 0.00 0.00 66 1013.3
20260507205044 73 257 3.0 12.0 0.00 0.00 0.00 63 1013.3
20260507203520 73 240 3.0 15.0 0.00 0.00 0.00 65 1013.5
20260507202017 73 269 4.0 11.0 0.00 0.00 0.00 64 1013.6
20260507200538 73 322 2.0 5.0 0.00 0.00 0.00 63 1013.5
20260507195030 73 237 2.0 14.0 0.00 0.00 0.00 64 1013.6
20260507193535 74 214 1.0 15.0 0.00 0.00 0.00 63 1013.6
20260507192021 73 285 1.0 11.0 0.00 0.00 0.00 63 1013.7
20260507190516 73 284 0.0 7.0 0.00 0.00 0.00 64 1014.0
20260507185046 72 304 1.0 6.0 0.00 0.00 0.00 64 1014.2
20260507183554 71 293 1.0 5.0 0.00 0.00 0.00 65 1014.3
20260507182019 70 331 0.0 7.0 0.00 0.00 0.00 67 1014.3
20260507180531 69 274 1.0 8.0 0.00 0.00 0.00 69 1014.4
20260507175032 68 279 0.0 4.0 0.00 0.00 0.00 69 1014.5
20260507173523 67 288 2.0 7.0 0.00 0.00 0.00 70 1014.6
20260507172031 66 281 0.0 4.0 0.00 0.00 0.00 72 1014.7
20260507170516 64 283 0.0 7.0 0.00 0.00 0.00 75 1014.9
20260507165025 64 289 0.0 5.0 0.00 0.00 0.00 75 1014.9
20260507163534 63 299 1.0 6.0 0.00 0.00 0.00 77 1015.0
20260507162026 62 295 2.0 5.0 0.00 0.00 0.00 78 1015.2
20260507160518 62 269 0.0 0.0 0.00 0.00 0.00 79 1015.0
20260507155028 61 265 0.0 0.0 0.00 0.00 0.00 81 1015.2
20260507153541 60 294 0.0 0.0 0.00 0.00 0.00 82 1015.0
20260507152025 60 275 0.0 0.0 0.00 0.00 0.00 83 1015.0
20260507150516 59 336 0.0 0.0 0.00 0.00 0.00 84 1015.0
20260507145028 58 337 0.0 0.0 0.00 0.00 0.00 85 1015.0
20260507143522 57 337 0.0 0.0 0.00 0.00 0.00 85 1015.0
20260507142037 57 336 0.0 0.0 0.00 0.00 0.00 85 1014.8
20260507140535 57 315 0.0 0.0 0.00 0.00 0.00 86 1014.7
20260507135024 57 310 0.0 0.0 0.00 0.00 0.00 87 1014.5
20260507133532 56 310 0.0 0.0 0.00 0.00 0.00 87 1014.5
20260507132028 56 310 0.0 0.0 0.00 0.00 0.00 87 1014.5
20260507130523 55 310 0.0 0.0 0.00 0.00 0.00 87 1014.5
20260507125020 55 310 0.0 0.0 0.00 0.00 0.00 87 1014.3
20260507123519 55 309 0.0 0.0 0.00 0.00 0.00 86 1014.2
20260507122016 55 309 0.0 0.0 0.00 0.00 0.00 86 1014.2
20260507120515 55 309 0.0 0.0 0.00 0.00 0.00 86 1014.2
20260507115032 55 309 0.0 0.0 0.00 0.00 0.00 86 1014.2
20260507113553 55 309 0.0 0.0 0.00 0.00 0.00 86 1014.2
20260507112027 55 309 0.0 0.0 0.00 0.00 0.00 86 1014.3
20260507110540 55 309 0.0 0.0 0.00 0.00 0.00 86 1014.4
20260507105016 56 309 0.0 0.0 0.00 0.00 0.00 86 1014.4
20260507103514 56 309 0.0 0.0 0.00 0.00 0.00 86 1014.5
20260507102032 56 309 0.0 0.0 0.00 0.00 0.00 86 1014.6
20260507100533 56 309 0.0 0.0 0.00 0.00 0.00 86 1014.6
20260507095045 56 309 0.0 0.0 0.00 0.00 0.00 86 1014.7
20260507093524 57 309 0.0 0.0 0.00 0.00 0.00 85 1014.8
20260507092040 57 309 0.0 0.0 0.00 0.00 0.00 85 1014.9
20260507090543 57 309 0.0 0.0 0.00 0.00 0.00 85 1015.1
20260507085015 57 309 0.0 0.0 0.00 0.00 0.00 85 1015.2
20260507083533 57 309 0.0 0.0 0.00 0.00 0.00 85 1015.3
20260507082033 57 309 0.0 0.0 0.00 0.00 0.00 85 1015.4
20260507080534 57 309 0.0 0.0 0.00 0.00 0.00 85 1015.5
20260507075013 57 309 0.0 0.0 0.00 0.00 0.00 84 1015.6
20260507073531 58 309 0.0 0.0 0.00 0.00 0.00 85 1015.5
20260507072026 58 309 0.0 0.0 0.00 0.00 0.00 84 1015.5